Location: Zagreb
(45.8000°N, 16.0000°E)
Time: 11:39:38
(UTC+01:00)

Vanguard 1 Rocket - Pass Details

Date: 10 October 2020
Orbit: 656 x 4221 km, 34.3° (Epoch: 28 October)

Event Time Altitude Azimuth Distance (km) Brightness Sun altitude
Rises 20:54:49 0° 272° (W) 5,279 12.4 -27.7°
Reaches altitude 10° 20:58:02 10° 263° (W) 4,684 11.8 -28.2°
Maximum altitude 21:10:37 37° 203° (SSW) 4,192 10.6 -30.3°
Enters shadow 21:22:31 23° 159° (SSE) 5,855 11.0 -32.1°
Drops below altitude 10° 21:30:37 10° 146° (SSE) 7,275 - -33.4°
Sets 21:37:28 0° 140° (SE) 8,446 - -34.5°
